Regional Weather Roundup
Issued by NWS Cleveland, OH

Home | Current Version | Previous Version | Text Only | Print | Product List | Glossary Off
Versions: 1 2 3 4 5 6 7 8 9 10 11 12 13 14 15 16 17 18 19 20 21 22 23 24 25 26 27 28 29 30 31 32 33 34 35 36 37 38 39 40 41 42 43 44 45 46 47 48 49 50

000
ASUS41 KCLE 280412
RWRCLE
OHIO REGIONAL WEATHER ROUNDUP
NATIONAL WEATHER SERVICE WILMINGTON, OH
1200 AM EDT SUN AUG 28 2016

NOTE: "FAIR" INDICATES FEW OR NO CLOUDS BELOW 12,000 FEET WITH NO
SIGNIFICANT WEATHER AND/OR OBSTRUCTIONS TO VISIBILITY.

OHZ001>008-015>018-024>027-034-035-043-044-280500-
   NORTHWEST OHIO

CITY           SKY/WX    TMP DP  RH WIND       PRES   REMARKS
DEFIANCE       FAIR      74  70  87 S3        30.13S
FINDLAY        FAIR      71  67  87 S5        30.13S
TOLEDO EXPRESS FAIR      70  70 100 CALM      30.13R
TOLEDO EXEC    FAIR      72  71  97 S5        30.14R
LIMA           FAIR      71  70  96 S3        30.15S
$$

OHZ009>014-019>023-028>033-038-089-280500-
   NORTHEAST OHIO

CITY           SKY/WX    TMP DP  RH WIND       PRES   REMARKS
CLE-HOPKINS    FAIR      72  69  90 S5        30.15S
CLE-LAKEFRONT  FAIR      75  70  84 S6        30.11F
CUY CO. ARPT   NOT AVBL
LORAIN-ELYRIA  FAIR      67  65  93 CALM      30.14F
ASHTABULA      FAIR      72  71  97 CALM      30.15R
AKRON-CANTON   FAIR      71  67  87 S6        30.16S
WOOSTER        FAIR      67  67 100 CALM      30.17R FOG
MANSFIELD      FAIR      70  69  97 CALM      30.17S
YOUNGSTOWN     MOCLDY    76  67  73 S6        30.15S
$$

OHZ042-051>053-060>062-070>072-077>081-280500-
  SOUTHWEST OHIO

CITY           SKY/WX    TMP DP  RH WIND       PRES   REMARKS
CINC-COVINGTON MOCLDY    75  72  90 CALM      30.15S
CINC-LUNKEN    NOT AVBL
HAMILTON       FAIR      71  69  93 SE3       30.16R
DAYTON         MOCLDY    73  69  87 CALM      30.17S
WRIGHT-PAT AFB PTCLDY    72  71  98 S2        30.15S
DAYTON GENERAL FAIR      72  68  87 CALM      30.15S
WILMINGTON     FAIR      69  68  96 NE6       30.16S
$$

OHZ036-037-039>041-045>050-054>059-063>069-073>076-082>088-280500-
  CENTRAL AND SOUTHEAST OHIO

CITY           SKY/WX    TMP DP  RH WIND       PRES   REMARKS
COLUMBUS       MOCLDY    71  68  90 CALM      30.15R
OSU AIRPORT    FAIR      71  70  96 CALM      30.15S
BOLTON FIELD   FAIR      68  68  99 CALM      30.16S
RICKENBACK AFB FAIR      71  69  92 CALM      30.15R
NEWARK         FAIR      68  68 100 CALM      30.15S
MARION         FAIR      69  67  93 S5        30.15F
LANCASTER      FAIR      70  69  97 CALM      30.16R
ZANESVILLE     FAIR      71  68  90 CALM      30.16R
NEW PHILLY     FAIR      73  68  84 CALM      30.16S
$$



USA.gov is the U.S. government's official web portal to all federal, state and local government web resources and services.